PreDB.eu

music predb - trance, techno, house, hardstyle, hardcore
updated: 2021-04-22 19:08:25
JAN 25 GB 437 RFEB 39 GB 602 RMAR 46 GB 658 R
2021-04-22 17:52:25TechnoLeandro_Taibbi-Stelle-(NATBLACK309)-WEB-2021-PTC
2021-04-22 17:51:31TechnoD._Diggler-Xtron-(LF224)-SINGLE-WEB-2021-PTC
2021-04-22 17:35:12TechnoIan_Axide-Theory_EP-(COTD037)-WEB-2021-AOV_INT
2021-04-22 15:41:06Hardstyle858PETDuo_-_Future_Music-(CAUSE055)-WEB-2021-SRG_iNT
2021-04-22 15:29:04Hardstyle511Jeener_And_Diabela_-_In_The_Universe-(BABY078)-SINGLE-WEB-2021-SRG_iNT
2021-04-22 15:12:56Hardstyle617Vertile_-_The_New_Normal-(NBQ107PRO)-WEB-2021-SRG_iNT
2021-04-22 15:12:45Hardstyle619Rejecta_-_Never_Give_Up-(ROUGH180PRO)-WEB-2021-SRG_iNT
2021-04-22 15:12:35Hardstyle59Karl-K_-_Dont_Blink-(ACTDIG166)-SINGLE-WEB-2021-SRG_iNT
2021-04-22 14:56:22Hardstyle617MI37_-_Motivation-(ORIGINS019)-WEB-2021-SRG_iNT
2021-04-22 14:50:03Techno1079VA-First_Anniversary-(BTD004)-WEB-2021-BABAS
2021-04-22 14:49:31Techno11131Breger-The_End_Of_The_Tunnel-(ZENCD217)-WEB-2021-x0x0s
2021-04-22 14:43:35Hardstyle56Rooler_-_LOVE_U_BABY-(AR014)-SINGLE-WEB-2021-SRG
2021-04-22 14:43:24Hardstyle56Mind_Dimension_-_Let_Me_Go_(Kinetic_Remix)-(SSR016)-SINGLE-WEB-2021-SRG
2021-04-22 14:43:09Hardstyle57Jason_Payne_And_MC_Activate_-_Stand_Tall-(RSU001)-SINGLE-WEB-2021-SRG
2021-04-22 14:42:56Hardstyle58Da_Tweekaz_And_LNY_TNZ_-_So_Easy-(DWX974)-SINGLE-WEB-2021-SRG
2021-04-22 14:42:44Hardstyle510Sephyx_-_Devil_In_The_Eyes_(Diabolus)-(AOC045)-SINGLE-WEB-2021-SRG
2021-04-22 07:05:00TechnoKarotte_-_Karottes_Kitchen-SAT-04-21-2021-TALiON
2021-04-22 06:43:21Techno14156VA_-_Beatport_Sante_Spring_Time_Groovs_Chart-WEB-2021
2021-04-22 06:42:58Techno14137VA_-_Beatport_Tim_Engelhardt_Prophecy_Chart-WEB-2021
2021-04-22 06:42:37Techno14137VA_-_Beatport_Fisherman_Apache_2.0_Chart-WEB-2021
2021-04-22 01:42:35Techno857Alvinho_L_Noise-Catimba_EP-(CP112)-WEB-2021-AOV_INT
2021-04-22 00:00:05Techno12112Sigvard-Mind_Over_Hats_EP-(MATERIA041)-WEB-2021-AOV_INT
2021-04-21 22:01:12Techno964Senh-Clouds_EP-(PRRUKBLK061)-WEB-2021-AOV_INT
2021-04-21 15:39:18Hardstyle49Rosell_-_Iris-(BABY077)-SINGLE-WEB-2021-SRG_iNT
2021-04-21 15:25:58Hardstyle57Venture_-_I_Gave_You_Love-(DWX973)-SINGLE-WEB-2021-SRG
2021-04-21 15:25:45Hardstyle59Sub_Sonik_Ft._KIMM_-_Break_The_Silence-(DWX972)-SINGLE-WEB-2021-SRG
2021-04-21 15:17:08Hardstyle619The_Pitcher_Ft._Nathalie_Blue_-_Limitless-(IAH040)-WEB-2021-SRG_iNT
2021-04-21 12:10:25Techno758Atze_Ton_and_Bryn_Green-Techno_Freak_EP-(SM003)-WEB-2021-wAx
2021-04-21 12:09:27Techno640Atze_Ton-My_Name_Is_Techno_EP-(BLV8584608)-WEB-2021-wAx
2021-04-21 12:08:32Techno749Atze_Ton-Under_The_Ground-(RR57)-WEB-2021-wAx
2021-04-21 11:59:19Techno35847Scooter-God_Save_The_Rave-2CD-FLACON
2021-04-21 11:54:10Techno23214Scooter-God_Save_The_Rave-2CD-2021-KOPiE
2021-04-21 11:15:30Techno16184Kid_Atari--The_Lost_Cinema_Pt_2-(IGNORE011)-WEB-2021-BABAS
2021-04-21 11:15:08Techno852Asymptote--Acid_Pulse-(SAV016)-WEB-2021-BABAS
2021-04-21 11:14:47Techno643Made_Noise--Furderhin-(IGNORE014)-WEB-2021-BABAS
2021-04-21 11:14:26Techno1098Concrete_Path--Lost_Tracks_1-(IGNORE018)-WEB-2021-BABAS
2021-04-21 10:50:36Techno648Dino_Maggiorana-Respect-(LIMBO0144)-WEB-2021-wAx
2021-04-21 10:01:10Techno19194VA-Notes_From_The_Dark_Vol_14-(VOLTCOMP997)-WEB-2021-KNOWN
2021-04-21 09:59:28Techno34277VA-Technologic_Sounds_Spring_21-(REN190)-WEB-2021-KNOWN
2021-04-21 09:44:29Techno29328VA-Peak_Time_Techno_Vol_11-(LWPTT11)-WEB-2021-KNOWN
2021-04-21 09:41:36Techno741Hector_Da_Rosa_and_Maraxe-Get_Panic-(AVK065)-WEB-2021-KNOWN
2021-04-21 09:40:03Techno19210VA-Ingredient_Music_Vol_41-(RACOMP432A)-WEB-2021-KNOWN
2021-04-21 09:38:12Techno626Massoud_Spieth-Endless-(BB441)-WEB-2021-KNOWN
2021-04-21 09:36:23Techno842The_Astronauts-They_Are_Coming_-_EP-(BOTS0105)-WEB-2021-KNOWN
2021-04-21 09:34:48Techno623We_Are_Frnds-Kaleidoscope-(TCIA00129)-WEB-2021-KNOWN
2021-04-21 09:33:58Techno634The_Second_Wave-The_Prodigal_Son-SSR064-WEB-2021-TraX
2021-04-21 09:33:15Techno34257VA-Peak_Time_Sessions_Spring_21-(REN191)-WEB-2021-KNOWN
2021-04-21 09:23:43Techno745Martin_Kinrus-Transmutation-HDRZ060-WEB-2021-TraX
2021-04-21 08:46:07Techno624Lee_Pennington-Das_Boot-(Q361)-WEB-2021-KNOWN
2021-04-21 07:58:04Techno1496VA-Urban_Techno-(KIRA053)-WEB-2021-KNOWN
2021-04-21 06:41:42Techno24294VA_-_Beatport_Exclusives_Only_Week_14-WEB-2021
2021-04-21 06:41:09Techno14143VA_-_Beatport_Chart_by_Ellen_Allien_-_AurAA_RMXS-WEB-2021
2021-04-21 06:40:43Techno23265VA_-_Traxsource_Piero_Scratch_May_Chart-WEB-2021
2021-04-21 06:40:18Techno13128VA_-_Traxsource_Robiin_If_You_Chart-WEB-2021
2021-04-21 01:43:50Techno644Timo_Veranta_and_Henheimer-Surge_EP-(ITR0065)-WEB-2021-PTC
2021-04-20 22:50:35TechnoChris_Liebing_-_AM.FM_319-SAT-04-18-2021-TALiON
2021-04-20 22:46:09TechnoDave_Clarke_-_White_Noise_798-SAT-04-18-2021-TALiON
2021-04-20 21:58:29TechnoJosh_Wink_-_Profound_Sounds-SAT-04-20-2021-TALiON
2021-04-20 21:57:12TechnoNicole_Moudaber_-_In_The_MOOD_364-CABLE-04-19-2021-TALiON
2021-04-20 20:15:57TechnoScooter-Which_Light_Switch_Is_Which_(Extended_Mix)-(4251603234408)-WEBFLAC-2019-L4L
2021-04-20 20:14:06Techno19384Scooter-God_Save_The_Rave-(4251603261824)-WEBFLAC-2021-L4L
2021-04-20 20:13:20TechnoScooter-FCK_2020_(RAF_and_Superdefekt_Remix)-(4251603258169)-WEBFLAC-2020-L4L
2021-04-20 20:12:42TechnoScooter-FCK_2020_(Extended_Mix)-(4251603255366)-WEBFLAC-2020-L4L
2021-04-20 20:12:01TechnoScooter-FCK_2020-(4251603255168)-WEBFLAC-2020-L4L
2021-04-20 20:11:06TechnoScooter-Devil's_Symphony_(The_Mixes)-(4251603231834)-WEBFLAC-2019-L4L
2021-04-20 20:10:30TechnoScooter-Devil's_Symphony-(4251603230172)-WEBFLAC-2019-L4L
2021-04-20 20:09:51TechnoScooter-Bassdrum_(Extended_Mix)-(4251603249327)-WEBFLAC-2020-L4L
2021-04-20 20:09:04TechnoScooter_x_Harris_and_Ford-God_Save_The_Rave-(4251603223198)-WEBFLAC-2019-L4L
2021-04-20 20:08:21TechnoScooter_x_FiNCH_ASOZiAL-Bassdrum-(4251603244322)-WEBFLAC-2020-L4L
2021-04-20 20:07:43TechnoScooter_and_Xillions-Rave_Teacher_(Somebody_Like_Me)-(4251603215865)-WEBFLAC-2019-L4L
2021-04-20 19:13:10Techno855Ryogo_Yamamori--Sports-(KA05)-WEB-2021-BABAS
2021-04-20 19:12:48TechnoThe_Forest_x_Paisiz--Alpha_02-(LDG010)-WEB-2018-BABAS
2021-04-20 19:12:27Techno628Marcus_Henriksson--Beta_04-(LDG023)-WEB-2021-BABAS
2021-04-20 19:12:05TechnoVA-NOW-New_Orbit_Wave-Chapter_II-(LDG015)-WEB-2019-BABAS
2021-04-20 19:11:42TechnoPetit_Astronaute_x_Michailo--Alpha_08-(LDG020)-WEB-2020-BABAS
2021-04-20 19:11:21TechnoYuta_Chaya--Delta_05-(LDG019)-WEB-2020-BABAS
2021-04-20 19:10:58TechnoKuro_x_A._Mochi--Delta_04-(LDG016)-WEB-2019-BABAS
2021-04-20 19:10:37TechnoAleja_Sanchez_x_Ricardo_Garduno--Alpha_01-(LDG007)-WEB-2018-BABAS
2021-04-20 19:10:16TechnoVA-Thomas_P__Heckmann-25_Years_Of_Techno_and_Otaku_Master-(LDG001)-WEB-2016-BABAS_INT
2021-04-20 19:09:53TechnoArchitectural--Alpha_07-(LDG018)-WEB-2020-BABAS
2021-04-20 19:09:32TechnoCD_HATA--Delta_02-(LDG009)-WEB-2018-BABAS
2021-04-20 19:09:09Techno742Ryogo_Yamamori--Delta_06-(LDG021)-WEB-2021-BABAS
2021-04-20 18:44:38Techno747Phouz--Secret_City-(MLD05)-WEB-2021-BABAS
2021-04-20 18:43:53Techno626Jorge_Fons--Amnesia_EP-(SUR224)-WEB-2021-BABAS
2021-04-20 17:49:03Techno849Nico_DeNitto--Breach-Remixes-(MFR012)-WEB-2021-BABAS
2021-04-20 17:46:14Techno744Digital_Sound_System--A_Grey_November_EP-(MTPH015)-WEB-2021-BABAS
2021-04-20 16:56:29Techno740Rohar--Thorn_EP-(WRG002)-WEB-2021-BABAS
2021-04-20 16:54:06Techno867a_n_j_e--Circling-(KV019)-WEB-2021-BABAS
2021-04-20 15:13:01Techno14137Alessandro_Crimi-Sirius-(NEX006)-WEB-2021-AGITB
2021-04-20 14:59:50Hardstyle57Spectre_-_On_A_Mission-(SCARB025)-SINGLE-WEB-2021-SRG
2021-04-20 14:59:34Hardstyle510Salvation_-_Diamonds-(PRSPX035)-SINGLE-WEB-2021-SRG
2021-04-20 14:59:25Hardstyle512Furious_Mindz_-_We_Are_As_One-(GBR120)-SINGLE-WEB-2021-SRG
2021-04-20 14:59:07Hardstyle511Firelite_-_Beyond_The_Stars-(DWX971)-SINGLE-WEB-2021-SRG
2021-04-20 14:58:47Hardstyle57Eternate_And_Prosphere_-_Waiting_For_You-(UNLR007)-SINGLE-WEB-2021-SRG
2021-04-20 06:43:32Techno24284VA_-_Beatport_April_Future_Classics_Techno_(P-D)-WEB-2021
2021-04-20 06:43:04Techno13173VA_-_Beatport_Wowa_Dance_With_Colored_Shadows_072-WEB-2021
2021-04-20 06:42:36Techno24332VA_-_Beatport_Bridger_House_2_Trance_Ep_10_Chart-WEB-2021
2021-04-20 06:42:14Techno13132VA_-_Beatport_3DW_March_Chart-WEB-2021
2021-04-20 03:06:09Techno762Nikoretti_and_Oiza-Fata_Morgana-(ORANGE154)-WEB-2021-PTC
2021-04-20 00:43:31TechnoManu_Kenton_-_Hard_Techno_Time-(Galaxie)-SBD-19-09-2020-SOB_INT
2021-04-20 00:37:43TechnoDJ_Toff_-_History_of_Retro_21_(Banquise_FM)-SBD-2021-SOB_INT
2021-04-20 00:34:36TechnoDJ_HS_-_Retro_Session_(Metropolys)-SBD-04-04-2021-SOB_INT
2021-04-20 00:30:53TechnoContact_FM_Presents_-_DJ_HS_Birthday_(Lagoa)-SBD-31-05-2000-SOB_INT
2021-04-20 00:28:16TechnoFrank_Biazzi_-_30_Years_LAGOA_(Galaxie_Radio)-SBD-05-12-2020-SOB_INT
2021-04-20 00:26:03TechnoDJ_HS_-_Retro_Live_Show-SBD-20-03-2021-SOB_INT
2021-04-20 00:20:53TechnoDJ_HS_-_Technopolis_(Contact_FM)-SBD-Xx-11-2001-SOB_INT
2021-04-20 00:14:15TechnoDJ_Ghost_Live_-_30_Years_Cherry_Moon_(Radar_Belgium)-SBD-20-02-2021-SOB_INT
2021-04-20 00:10:45TechnoDJ_HS_-_House_Nation_(Galaxie_Radio)-SBD-13-03-2021-SOB_INT
2021-04-20 00:08:36TechnoDr_Phibes_-_Acid_Story_(DJ_Francois_2020_True_Mix)-WEB-2020-SOB_INT
2021-04-19 23:50:05TechnoManu_Kenton_-_Hard_Techno_Time-(Galaxie)-SBD-19-12-2020-SOB_INT
2021-04-19 23:46:34TechnoManu_Kenton_-_Hard_Techno_Time-(Galaxie)-SBD-17-10-2020-SOB_INT
2021-04-19 23:42:09TechnoJamie_Dill_-_30_Years_LAGOA_(Galaxie_Radio)-SBD-05-12-2020-SOB_INT
2021-04-19 23:19:23TechnoDJ_HS_-_Retro_Live_Show-SBD-19-02-2021-SOB_INT
2021-04-19 23:14:26TechnoDJ_HS_-_Retro_Session_(Metropolys)-SBD-31-10-2020-SOB_INT
2021-04-19 23:11:22TechnoFelix_Kroecher-In_The_Mix_(SSL)-SAT-19-04-2021-1KING
2021-04-19 23:10:38TechnoDJ_HS_-_100_Pour_Cent_Mix_Retro_70-SBD-2021-SOB_INT
2021-04-19 23:06:33TechnoManu_Kenton_-_30_Years_LAGOA_(Galaxie_Radio)-SBD-05-12-2020-SOB_INT
2021-04-19 23:01:35TechnoBestien_-_Ketswarek_Mixtape_16-SBD-2021-SOB_INT
2021-04-19 22:53:51TechnoDJ_HS_-_Retro_Session_(Metropolys)-SBD-26-12-2020-SOB_INT
2021-04-19 22:50:02TechnoDimitri_Cooman_Live_-_30_Years_Cherry_Moon_(Radar_Belgium)-SBD-20-02-2021-SOB_INT
2021-04-19 22:03:41TechnoDJ_HS_-_100_Pour_Cent_Mix_Retro_71-SBD-2021-SOB_INT
2021-04-19 21:58:25Techno411Domino_-_Oxia_(Furax_Cover_Remaster)-WEB-2021-SOB_INT
2021-04-19 20:21:16Techno981Pablo_Wesler-Title_Still_Irrelevant_EP-(NLD546)-WEB-2021-PTC
2021-04-19 20:20:52Techno524DJ_Dextro-Delta-(ONHCET094)-WEB-2021-PTC
2021-04-19 19:49:29Techno975Wast-Emersion_EP-(JLS003)-WEB-2021-AOV_INT
2021-04-19 19:48:33Techno854Vegim-From_Another_Side-(TMM275)-WEB-2021-AOV_INT
2021-04-19 19:48:16Techno1085Hertz-Antidote-(SWAY34)-WEB-2021-AOV_INT
2021-04-19 19:48:04Techno849Uncrat-Exclaim_EP-(MOST03)-WEB-2021-AOV_INT
2021-04-19 19:47:44Techno1087False_Witness-Third_Space-(EMS14)-WEB-2021-AOV_INT
2021-04-19 18:47:59TechnoNene_H-Scene_Analysis_EP-(MOST002)-WEB-2020-AOV_INT
2021-04-19 17:02:55Techno29384VA-Nothing_But____Hard_Techno_Anthems_Vol._02-(NBHTA02)-WEB-2021-COS_INT
2021-04-19 16:14:57Techno17473Van_Czar-Ibiza_Legacy-(BBC20213053)-WEBFLAC-2021-L4L
2021-04-19 15:16:31Hardstyle615The_Saraphim_-_Youre_The_Reason-(FUSION435)-WEB-2021-SRG
2021-04-19 15:16:15Hardstyle58Legion_-_The_Broken-(MYM023)-SINGLE-WEB-2021-SRG
2021-04-19 15:15:56Hardstyle510Fraw_And_Lea_Konig_-_Equality-(GBD317)-SINGLE-WEB-2021-SRG
2021-04-19 15:15:42Hardstyle59Forever_Lost_-_High_As_You-(DWX970)-SINGLE-WEB-2021-SRG
2021-04-19 11:35:27Techno615The_Saraphim_-_Youre_The_Reason-(FUSION435)-WEB-2021-JUSTiFY_iNT
2021-04-19 11:31:37Techno59Forever_Lost_-_High_As_You_(Extended_Mix)-(DWX970)-SINGLE-WEB-2021-JUSTiFY_iNT
2021-04-19 06:35:08Techno22282VA_-_Beatport_April_Closing_Essentials_Minimal_Deep_Tech-WEB-2021
2021-04-19 06:34:08Techno23189VA_-_Beatport_Deft_T_E_L_E_P_O_R_T_E_R_S_Chart-WEB-2021
2021-04-19 06:33:43Techno14141VA_-_Traxsource_Edwin_Oosterwal_Without_You_Chart-WEB-2021
2021-04-19 01:42:30Techno6159Aitra-In_Excelsis-(FOR088)-WEBFLAC-2021-L4L
2021-04-18 23:34:17Techno1073MONOMINDED-Observer-WEB-2021-KNOWN
2021-04-18 22:55:29TechnoHildegard-Hildegard_Meets_Music-SAT-18-04-2021-1KING
2021-04-18 19:24:35TechnoAlex_Ridley--Vermissen-(WOOD030)-WEB-2019-BABAS
2021-04-18 19:24:11TechnoVA-Voices_VA_002-(VCS002)-WEB-2020-BABAS
2021-04-18 19:23:48TechnoBesserwisser--Klugscheisser_EP-(WOOD076)-WEB-2020-BABAS
2021-04-18 19:21:52TechnoVA-Woodwork-Rekindled_(Mixed_by_Tyler_Stadius)-(WOOD010)-WEB-2016-BABAS
2021-04-18 19:21:18TechnoUpper_Regions--Shadowy_World-(WOOD074)-WEB-2020-BABAS
2021-04-18 19:20:55Techno738Kettama--G-TOWN_001-(GTOWN001)-WEB-2021-BABAS
2021-04-18 19:19:49Techno746Eme_Kulhnek--Voices_Of_Arturian_EP-(VCS011)-WEB-2021-BABAS
2021-04-18 19:19:06Techno967Syrette--Speaking_Truth_To_Power-(STG023)-WEB-2021-BABAS
2021-04-18 18:35:12Techno633Asaf_Peer--Beliefs-(TH350)-WEB-2021-BABAS
2021-04-18 18:21:34Techno750Coyu-Technostalgia_EP_5-(SUARA425)-WEB-2021-PTC
2021-04-18 18:11:36Techno857Optimuss-Orchestra-(OFF235)-WEB-2021-AOV_INT
2021-04-18 18:11:18Techno742Giovanni_Carozza-Nova-(ODD050)-WEB-2021-AOV_INT
2021-04-18 17:49:45Techno642TNTS-Dopamine-(JANNOWITZ088)-WEB-2021-PTC
2021-04-18 17:48:13Techno526E-Runner_feat._Dee_Dolphin-Horror_States_EP-(TRANS201)-WEB-2021-PTC
2021-04-18 17:26:00Hardstyle8290VA_-_The_Sound_Of_Hardstyle-Home_Edition_2-(BYMCD152)-2CD-2021-SRG
2021-04-18 17:25:41Hardstyle618System_Of_Loudness_-_Problems-(DT166)-WEB-2021-SRG_iNT
2021-04-18 17:25:29Hardstyle618Code_Black_And_Sickddellz_-_Fade_Away-(IAH039)-WEB-2021-SRG_iNT
2021-04-18 17:22:35TechnoCharlotte_De_Witte-Vision_EP-(FIGUREX17)-VINYL-2020-BF
2021-04-18 17:21:57Techno832Kettama-G_TOWN_001-(GTOWN001)-VINYL-2021-BF
2021-04-18 17:04:18Techno1088VA-100th_Anniversary_Compilation-(SA100)-WEB-2021-AOV_INT
2021-04-18 15:50:26Techno977A_Thousand_Details_And_Dykkon-Visits-(DKNS029)-WEB-2021-AOV_INT
2021-04-18 15:50:02Techno749Dichter-Defektowana-(DRE291)-WEB-2021-AOV_INT
2021-04-18 15:49:39Techno1077OBCDN_And_Don_Woezik-Divination-(RAW009)-WEB-2021-AOV_INT
2021-04-18 15:49:07Techno854Coyu-Technostalgia_EP_5-(SUARA425)-WEB-2021-AOV_INT
2021-04-18 15:32:22TechnoRed_Square--The_Way-(FLATDIG011)-WEB-2012-BABAS
2021-04-18 15:31:53TechnoSterling_Moss--Hyperdrive__Countdown-(FLATDIG023)-WEB-2014-BABAS
2021-04-18 15:31:29TechnoEfector--White_Lines__Dead_Line_Boom-(FLATDIG014)-WEB-2012-BABAS
2021-04-18 15:30:12TechnoThomas_Will--Pounding-(FLATDIG018)-WEB-2013-BABAS
2021-04-18 15:29:51TechnoVA-Flat_Files_Compilation-(FLATDIG013)-WEB-2012-BABAS
2021-04-18 15:29:29TechnoJack_Wax--Acid_Rocker-(FLATDIGI015)-WEB-2013-BABAS
2021-04-18 15:28:43TechnoIndigo--Original_Flavour-(FLATDIG006)-WEB-2011-BABAS
2021-04-18 15:27:34TechnoJack_Wax--Road_To_Praha-(FLATDIG008)-WEB-2011-BABAS
2021-04-18 13:52:27TechnoAlessandro_Diga--Eindeloos_EP-(AR001)-WEB-2015-BABAS
2021-04-18 13:39:05TechnoCarlo_Ruetz--Creatures_EP-(RUKUS009)-WEB-2017-BABAS
2021-04-18 13:37:18TechnoFlorian_Frings--Hour-(RUKUS011)-WEB-2017-BABAS
2021-04-18 12:57:30TechnoJoris_Voorn_-_Spectrum_Radio_208-SAT-04-17-2021-TALiON
2021-04-18 12:56:48TechnoAdam_Beyer_-_Drumcode_Live_559__Incl_Whebba_Guestmix-SAT-04-16-2021-TALiON
2021-04-18 12:15:08TechnoFrankey_And_Sandrino-BACKSTAGE_Live_on_SSL-SAT-18-04-2021-1KING
2021-04-18 11:28:05TechnoDroughtwerk--Glare-(DWK003)-WEB-2020-BABAS
2021-04-18 10:56:28TechnoAlexander_Kowalski-BACKSTAGE_Live_on_SSL-SAT-17-04-2021-1KING
2021-04-18 10:05:20TechnoRadio_Slave-BACKSTAGE_Live_on_SSL-SAT-17-04-2021-1KING
2021-04-18 09:42:47TechnoSilentwave--Poseidonslight__Brain_Dance-(OWR017)-WEB-2019-BABAS
2021-04-18 09:41:18TechnoSilentwave--Flyng_Buddha__Buddha_House-(OWR022)-WEB-2020-BABAS
2021-04-18 09:40:34Techno623Silentwave--x0x0x__Dream_303_Drone-(OWR036)-WEB-2021-BABAS
2021-04-18 08:09:30Techno985Aura_Minimum-Soul_Warding-SV48-Retail-CD-2021-BFHMP3
2021-04-18 07:05:34TechnoFranky_Rizardo-Flow_391-SAT-18-04-2021-1KING
2021-04-18 07:03:40TechnoOlivier_Weiter-Weiter_Radio-SAT-18-04-2021-1KING
2021-04-18 06:39:00Techno22258VA_-_Beatport_April_Future_Classics_Minimal_Deep_Tech-WEB-2021
2021-04-18 06:38:35Techno23246VA_-_Beatport_Nakadia_Rave_To_Save_With_Desperados_Chart-WEB-2021
2021-04-18 06:37:58Techno13141VA_-_Traxsource_Riva_Starr_Beat_Freak_Chart-WEB-2021
2021-04-18 06:37:28Techno13138VA_-_Beatport_Marco_Bailey_Free_The_Rave_Chart-WEB-2021
2021-04-18 05:08:52TechnoPhilipp_Ruhmhardt-Plattenleger-SAT-04-18-2021-PTC
2021-04-18 03:42:34Techno631Hellomonkey_And_Daniel_Nike-Run_Deep-(IAMT253)-WEB-2021-AOV_INT
2021-04-18 03:34:15Techno632HXTC-Space_Mission-(IAMTRED044)-WEB-2021-AOV_INT
2021-04-18 02:00:03TechnoSecret_Cinema-Gem_FM_201-SAT-18-04-2021-1KING
2021-04-18 01:01:30TechnoEelke_Kleijn-Days_Like_Nights_Radio_177-SAT-18-04-2021-1KING
2021-04-18 00:21:32Techno12108VA-Texture_Variations_Vol_2-(TXTRVA002)-WEB-2021-BABAS
2021-04-18 00:19:18Techno867Skaki--Goblin_EP-(ICDO125)-WEB-2021-BABAS
2021-04-17 23:55:00TechnoWouter_S-The_Boom_Room_355-SAT-17-04-2021-1KING
2021-04-17 23:18:15TechnoVA-Rhythm_Distrikt_13-WEB-2016-wAx
2021-04-17 23:00:51TechnoJoyhauser-In_the_Mix_(Studio_Brussel)-CABLE-17-04-2021-1KING
2021-04-17 22:54:32TechnoKreutziger-The_Boom_Room_355-SAT-17-04-2021-1KING
2021-04-17 19:27:28TechnoTerrence_Dixon--From_The_Far_Future_Pt._3-(TRESOR321D)-WEB-2020-OMA
2021-04-17 19:08:46Techno857Inner_City--Ahnonghay_EP-(NWKT22)-WEB-2021-OMA
2021-04-17 15:47:23Techno643Tony_Romanello-Hardwired-(KLR039)-WEB-2021-wAx
2021-04-17 12:18:38Techno511Ron_Costa-Superstition-PTBL183-SINGLE-WEB-2021-TraX
2021-04-17 12:13:18Techno746Zerotonine_(DE)-Spacecraft_EP-RSZ222-WEB-2021-TraX
2021-04-17 12:09:17Techno630RSRRCT-Dont_Stop_The_Overdrive-CODEX114-WEB-2021-TraX
2021-04-17 10:38:57Techno968VA-Collective_Process_Vol_1-(SOMA605D)-WEB-2021-AOV_INT
2021-04-17 10:38:40Techno749Dok_And_Martin-Temptations_EP-(WATB066)-WEB-2021-AOV_INT
2021-04-17 07:54:35TechnoAnja_Schneider-Club_Room-SAT-17-04-2021-1KING
2021-04-17 06:39:15Techno24312VA_-_Beatport_April_The_Shortlist_Minimal_Deep_Tech-WEB-2021
2021-04-17 06:38:41Techno29378VA_-_Traxsource_Essential_Techno_2021-03-22-WEB-2021
2021-04-17 06:37:57Techno14161VA_-_Beatport_Charlotte_De_Witte_303_Universe_Chart-WEB-2021
2021-04-17 04:32:45Techno863Semodi-Keep_On_Shining-(BP10222021)-WEB-2021-AOV_INT
2021-04-17 02:56:50TechnoIda_Engberg_-_Radio_1s_Essential_Mix-SAT-04-17-2021-TALiON
2021-04-16 23:00:52TechnoKlaps-In_the_Mix_(Studio_Brussel)-CABLE-16-04-2021-1KING
2021-04-16 21:23:44Techno736Ricardo_Garduno-Beyond_The_Universe-(ANA003LTD)-WEB-2021-B2R
2021-04-16 15:26:52Techno852VA-Edit_Select_107_D-(EDITSELECT107D)-WEB-2021-BABAS
2021-04-16 15:03:36TechnoVA-Canada_Loves_Techno_V-(RES056M)-WEB-2013-x0x0s
2021-04-16 15:03:01TechnoVA-Canada_Loves_Techno_7-(RES097M)-WEB-2018-x0x0s
2021-04-16 14:25:27Techno644Sam_Paganini--Zoe-(JAMBACKCATALOGUE01)-REMASTERED-WEB-2021-BABAS
2021-04-16 13:42:24Techno970Orbe--Retrofuture_EP-(ARR06)-WEB-2021-BABAS
2021-04-16 13:18:43Techno868VA-Prologue-(MNMTPROLOGUE)-WEB-2021-AGITB
2021-04-16 13:09:41Hardstyle58Refuzion_And_Mandy_Ft._Amanda_Collis_-_More_Than_A_Human-(DWX969)-SINGLE-WEB-2021-SRG
2021-04-16 13:00:59Techno875ASC-Sacred_Sevens_III-(MODCATHSS03)-WEB-2021-AGITB
2021-04-16 11:59:10Techno639Unknown--PART_II-(ARR08)-WEB-2021-BABAS
2021-04-16 11:58:28Techno970DxS--Differential_Forms_EP-(ARR05)-WEB-2021-BABAS
2021-04-16 11:57:59Techno865Eduardo_De_La_Calle--Distortion_Theory_III-WEB-2021-BABAS
2021-04-16 11:57:30Techno629Unknown--PART_I-(ARR07)-WEB-2021-BABAS
2021-04-16 11:57:10Techno863Eduardo_De_La_Calle--Distortion_Theory_III_(The_Remixes)-(ARR04)-WEB-2021-BABAS
2021-04-16 09:21:18TechnoThe_Celestial_Lineage--A_Lineage_Of_Ghosts-(HAK035)-WEB-2018-BABAS
2021-04-16 08:35:39Techno628Solarstone_-_Restless_4._A.M._(Jam_El_Mar_Remix)-(BH11100)-WEB-2021-L4M_INT
2021-04-16 07:16:01TechnoLilly_Palmer-Maxximum-SAT-04-16-2021-PTC
2021-04-16 06:44:31Techno44634VA_-_Traxsource_Essential_Minimal_Deep_Tech_2021-03-22-WEB-2021
2021-04-16 06:43:57Techno19263VA_-_Beatport_Elif_March_Picks_Chart-WEB-2021
2021-04-16 06:43:37Techno13187VA_-_Beatport_Chart_by_Alfij_-_Digital_Picks-WEB-2021
2021-04-16 06:36:34Techno1485VA--Global_Hardstyle_Best_Of_Vol_1-(DMWC001)-WEB-2021-OMA
2021-04-16 06:34:26Hardstyle59Retrospect_Ft._Last_Word_-_Never_Break-(SSL221)-SINGLE-WEB-2021-SRG
2021-04-16 06:34:16Hardstyle55Restless_-_Open_Your_Mind-(UPR078)-SINGLE-WEB-2021-SRG
2021-04-16 06:34:07Hardstyle58Inner_Conflict_-_I_See_The_Stars-(TR058)-SINGLE-WEB-2021-SRG
2021-04-16 06:34:00Hardstyle58Equalizerz_And_Nu-Clear_-_Irresistible-(HMR105)-SINGLE-WEB-2021-SRG
2021-04-16 05:48:32Hardstyle510D-Sturb_-_Partystarter-(EOL149)-SINGLE-WEB-2021-SRG
2021-04-16 04:33:51Techno14139A.J_Roland--Reflections-(SUPER331)-WEB-2021-OMA
2021-04-16 04:33:24Techno850Rove_Ranger--Rolling_Dices-(KW040)-WEB-2021-BABAS
2021-04-16 04:28:36Techno619Ugur_Project-Nova-(SA096)-WEB-2021-x0x0s
2021-04-16 04:10:42Techno1297VA-Ten_Years_Of_Butter_Sessions_Vol_1-(BSRTEN1)-WEB-2021-BABAS
2021-04-16 04:10:19Techno1190VA-Ten_Years_Of_Butter_Sessions_Vol_2-(BSRTEN2)-WEB-2021-BABAS
2021-04-16 04:09:51Techno1186VA-Ten_Years_Of_Butter_Sessions_Vol_3-(BSRTEN3)-WEB-2021-BABAS
2021-04-16 03:43:45Techno630Tom_Wax-The_Best_(Remixes)-(PWD026)-WEB-2021-PTC
2021-04-16 03:23:33Techno858Dima_Gastroler-Construct-(UNCAGEX014)-WEB-2021-PTC
2021-04-16 03:15:46TechnoAmby_Iguous--Tales_Of_Cheburyat_2_10_Bh-(SK017D)-WEB-2020-BABAS
2021-04-16 03:15:22TechnoVA-Beyond_Time-(DVNTT009)-WEB-2017-BABAS
2021-04-16 03:14:40TechnoThe_Effaith--Lost-(SK013D)-WEB-2018-BABAS
2021-04-16 03:12:27TechnoAtomic_Moog--Shape-(NFRWD04)-WEB-2018-BABAS
2021-04-16 03:10:57TechnoEloim--Distant_Landscape-(SK004D)-WEB-2015-BABAS
2021-04-16 03:10:05TechnoSoma--Dar_Sangre-(BKH007)-WEB-2018-BABAS
2021-04-16 03:08:40TechnoEloim--Drama-(NFRWD07)-WEB-2020-BABAS
2021-04-16 03:07:23TechnoAlbert_Chiovenda--Until_The_End-(DVNTT011)-WEB-2018-BABAS
2021-04-16 03:06:58Techno15205Andres_Fernandez_Aka_Knario--Artist_Series-Andres_Fernandez_Aka_Knario-(SUPDUB287)-WEB-2021-BABAS
2021-04-16 03:06:56Techno646Eme_Kulhnek-Geheimnisse_EP-(GEM072)-WEB-2021-PTC
2021-04-16 03:06:27TechnoJewill--Distorted_Past-(SK006D)-WEB-2016-BABAS
2021-04-16 02:11:18TechnoGianmarco_Silvetti--Secret_Test_EP-(SK001D)-WEB-2015-BABAS
2021-04-16 01:42:08Techno632David_Museen_Erik_Christiansen-Whoomph-(NF176)-WEB-2021-BF
2021-04-16 00:16:31Techno971VA-Spektrum-(LIP004)-WEB-2021-AGITB
2021-04-15 23:51:54Techno19262Blutonium_Boy--Hardstyle_Majestro_The_Album-(ALP026)-WEB-2021-OMA
2021-04-15 21:29:55TechnoPhilip_Nicolai_Flindt--Continuous_Script-(RSP171)-WEB-2020-BABAS
2021-04-15 17:33:43Hardstyle21161Teka_B_-_Psycho-(FBCD20210001)-WEB-2021-SRG_iNT
2021-04-15 17:12:02Hardstyle510Noiva_-_Merodi-(LOV103)-SINGLE-WEB-2021-SRG_iNT
2021-04-15 17:11:44Hardstyle617MYST_-_The_End-(NBQ106PRO)-WEB-2021-SRG_iNT
2021-04-15 17:11:31Hardstyle623Mike_Enemy_Ft._RAMY_-_Water_In_My_Veins-(HDUK008)-WEB-2021-SRG_iNT
2021-04-15 17:10:44Hardstyle619B-Front_And_Deluzion_-_Unfold_Me-(ROUGH179PRO)-WEB-2021-SRG_iNT
2021-04-15 16:19:30Techno775Sandro_Galli-Subconscious_EP-(ELEK429)-WEB-2021-PTC
2021-04-15 15:44:43Techno850Klotz-Hidrosfera_EP-(SGN024)-WEB-2021-AOV_INT
2021-04-15 15:44:23Techno855Hector_Da_Rosa_And_MarAxe-The_Purge_EP-(DRE290)-WEB-2021-AOV_INT
2021-04-15 15:44:05Techno850Fred_Asquith-Dirtbox_Roller_EP-(BEK044)-WEB-2021-AOV_INT
2021-04-15 15:43:38Techno970Electric_Rescue-Forgotten_Tolerance_EP-(SKRPT53)-WEB-2021-AOV_INT
2021-04-15 15:17:39Techno757Marco_Piangiamore-Spaceman-(TRAPEZ235)-WEB-2021-PTC
2021-04-15 14:48:42Techno858Simulade-Saturn-(ETB068)-WEB-2021-AOV_INT
2021-04-15 14:48:01Techno855PWCCA-Vampirism-(IAR282)-WEB-2021-AOV_INT
2021-04-15 14:47:53TechnoMotion_Symmetry-X_20-(NWR022)-WEB-2021-AOV_INT
2021-04-15 14:47:12Techno625Pfirter-Paralelo_005-(PLL005)-WEB-2021-AOV_INT
2021-04-15 14:46:44Techno860Non_Reversible-Coalescence_EP-(AFR051)-WEB-2021-AOV_INT
2021-04-15 14:46:08Techno856Arnaud_Le_Texier-Deform-(EMPHATIC055)-WEB-2021-AOV_INT
2021-04-15 13:52:37Techno760Zerotonine_(DE)-Helium-(NATBLACK308)-WEB-2021-PTC
2021-04-15 07:32:48Techno959Crying_Skies--Expressing_Ways-(BLR250)-WEB-2021-BABAS
2021-04-15 07:20:42TechnoIuna_Niva--Primeval_Guilt-(NOOLTD22)-WEB-2017-BABAS
2021-04-15 07:18:13TechnoMartin_Schmitz--Agriculture-(NOOLTD28)-WEB-2018-BABAS
2021-04-15 06:44:47Techno23276VA_-_Beatport_April_Peak_Hour_Tracks_Hard_Techno-WEB-2021
2021-04-15 06:44:18Techno24337VA_-_Beatport_March_The_Shortlist_Techno_(R-D-H)-WEB-2021
2021-04-15 06:43:39Techno17185VA_-_Traxsource_Lucy_St_John_IWD_Chart-WEB-2021
2021-04-15 06:43:16Techno14133VA_-_Traxsource_Dom_Dolla_Pump_The_Brakes_Chart-WEB-2021
2021-04-15 05:46:35Hardstyle58Steve_Chris_-_The_5th_Element-(KNR019)-SINGLE-WEB-2021-SRG
2021-04-15 05:46:10Hardstyle59Frizzyboyz_-_Stay_On-(GBE122)-SINGLE-WEB-2021-SRG
2021-04-15 05:46:09Hardstyle510Sacred_Mind_And_Volture_Ft._MC_Activate_-_Fallen-(PRSPX034)-SINGLE-WEB-2021-SRG
2021-04-15 05:11:11Hardstyle512Rebelion_-_Ghost_Of_Us-(SCANTRAXX368)-SINGLE-WEB-2021-FMC
2021-04-15 04:59:27TechnoMartin_Schmitz--Gedanken-(NOOXCIX)-WEB-2020-BABAS
2021-04-15 04:38:00Techno644Stevie_Best-Reach_EP-(PHOBIQ0256D)-WEB-2021-PTC
2021-04-14 23:00:30Techno1081Casual_Treatment-Transit-(SK019D)-WEB-2021-AOV_INT
2021-04-14 23:00:14Techno977Temudo-Idle_EP-(WU68D)-WEB-2021-AOV_INT
2021-04-14 21:11:00Techno49Axyom-Sequencing-(OMN060)-SINGLE-WEB-2021-wAx
2021-04-14 19:40:03Techno759George_Libe-Oscillations-(REMAINLTD134)-WEB-2021-PTC
2021-04-14 19:39:09Techno642Monoplex-Point_Blank-(REMAINLTD132)-WEB-2021-PTC
2021-04-14 19:34:10Techno527Fractious-Altered_State_The_Remix-(AGILE121)-WEB-2021-PTC
2021-04-14 19:33:52Techno761Fabrizio_Rat-Move-(INV032)-WEB-2021-PTC
2021-04-14 15:44:48Hardstyle59Unsenses_-_Dreaming-(DWX966)-SINGLE-WEB-2021-SRG
2021-04-14 15:44:35Hardstyle59Hayway_-_Funfair_Of_Nightmares-(DWX967)-SINGLE-WEB-2021-SRG
2021-04-14 15:44:21Hardstyle58Hardstyle_Mafia_-_Night_To_Remember-(SPOON224)-SINGLE-WEB-2021-SRG
2021-04-14 15:32:34Hardstyle840Toneshifterz_-_We_Will_Meet_Again_EP-(IAH038)-WEB-2021-SRG_iNT
2021-04-14 15:32:25Hardstyle510Genox_-_Warrior-(SSR015)-SINGLE-WEB-2021-SRG_iNT
2021-04-14 15:32:12Hardstyle618Carbonatez_-_Powerplant-(HGX025)-WEB-2021-SRG_iNT
2021-04-14 13:40:42Techno4137Rinse_FM_Tobacco_Dock_Virtual-Imogen-LIVE-WEB-2021-XTC_iNT
2021-04-14 13:38:21Techno4205Rinse_FM_Tobacco_Dock_Virtual-Sasha-LIVE-WEB-2021-XTC_iNT
2021-04-14 13:37:20Techno742Alex_Bau-Santumel-(DMR142)-WEB-2021-AGITB
2021-04-14 13:31:52Techno648DJ_Jordan-Unleashed_Passion-(LAKMUSIC012)-WEB-2021-wAx
2021-04-14 13:29:00Techno529Marika_Rossa-Zodiac-(SOLAMENTE106)-WEB-2021-wAx
2021-04-14 11:57:02Techno10102Buben-Techno_Industrial_Suprematism_Pt_3-WEB-2021-XTC_iNT
2021-04-14 11:56:34Techno11110Buben-Techno_Industrial_Suprematism_Pt_2-WEB-2021-XTC_iNT
2021-04-14 11:55:57TechnoVA-Hard_Techno_3-WEB-2020-XTC_iNT
2021-04-14 10:53:08Techno958Surrogate-MISTRESS_15-(HU-MR15-SH)-WEB-2021-AGITB
2021-04-14 06:37:41Techno24293VA_-_Beatport_April_Future_Classics_Techno_(R-D-H)-WEB-2021
2021-04-14 06:36:46Techno14152VA_-_Beatport_Paul_Denton_Hammer_Time_Chart-WEB-2021
2021-04-14 06:36:23Techno16157VA_-_Beatport_Junior_Jacks_Spring_Chart-WEB-2021
2021-04-14 05:09:42Techno753Ken_Ishii-Glow__Dive-(TR391)-WEB-2021-PTC
2021-04-14 04:30:07Techno639Hertz_Collision_and_Gene_Richards_Jr-Hood_Thang-(TRUNCATEDGTL04)-WEB-2021-PTC
2021-04-14 04:29:52Techno528Andreas_Kraemer-Undead_Determination-(PU044)-WEB-2021-PTC
2021-04-14 04:06:34Techno412Terrence_Dixon-Resolution-(RHM035S)-SINGLE-WEB-2021-PTC
2021-04-13 23:12:24Techno14163VA-63-(AFILES063)-WEB-2021-BABAS
2021-04-13 17:40:39Techno630Regis-CUB-(DNCIB01)-WEB-2021-AGITB
2021-04-13 15:26:54Hardstyle59The_Originalz_And_Reacnite_-_Summer-(AREC051E)-SINGLE-WEB-2021-SRG
2021-04-13 15:26:39Hardstyle618Super_Marco_May_-_Tortuga-(BKW031)-WEB-2021-SRG
2021-04-13 15:26:27Hardstyle57Dvastate_-_Put_Me_To_Rest-(PRSPX033)-SINGLE-WEB-2021-SRG
2021-04-13 15:26:11Hardstyle57Dr_Rude_And_Crude_Intentions_-_Twisted-(DWX965)-SINGLE-WEB-2021-SRG
2021-04-13 15:25:59Hardstyle58Code_Crime_And_I_Giocatori_-_Figure-(GBR119)-SINGLE-WEB-2021-SRG
2021-04-13 13:26:49Techno744Kaan_Elitok_and_dott._Santafeo--Volante-(SUPDUB289)-WEB-2021-OMA
2021-04-13 13:02:05Techno16303VA--Technocolor_Podcast_4_(Mixed_By_Vito_Von_Gert)-(TC014)-WEB-2021-OMA
2021-04-13 13:00:31Techno12131Kazak--Hypnotherapy_EP-(TC013)-WEB-2021-OMA
2021-04-13 10:14:04TechnoChris_Liebing_-_AM.FM_318-SAT-04-11-2021-TALiON
2021-04-13 10:11:04TechnoNicole_Moudaber_-_In_The_MOOD_363-CABLE-04-12-2021-TALiON
2021-04-13 10:10:03TechnoJosh_Wink_-_Profound_Sounds-SAT-04-13-2021-TALiON
2021-04-13 10:02:04TechnoAdam_Beyer_-_Drumcode_Live_558__Incl_Sterac_Guestmix-SAT-04-09-2021-TALiON
2021-04-13 06:43:42Techno14144VA_-_Traxsource_Shaded_March_Chart-WEB-2021
2021-04-13 06:43:22Techno14157VA_-_Beatport_Jase_Thirlwall_Marching_orders_Chart-WEB-2021
2021-04-13 06:42:52Techno31442VA_-_Beatport_Chart_by_CocoNoize_-_WAVE_edition-WEB-2021
2021-04-13 06:39:57Techno853Rafael_Osmo_-_Illusion_World___Two-(FSOEC126A)-WEB-2021
2021-04-13 01:38:25Techno13121DJ_Dextro-A_Matter_Of_Perspective-(NLLPD92)-WEB-2021-PTC
2021-04-12 23:57:05TechnoFelix_Kroecher-In_The_Mix_(SSL)-SAT-12-04-2021-1KING
2021-04-12 23:55:45Techno528Jan_Darsel_and_Weare2-Nightmare__Melodic_Dreams-(ASTRALCARD017)-WEB-2021-PTC
2021-04-12 23:29:29Techno44499VA-Techno_Sounds_2021_-_Underground_Music_Only-(MOR30805)-WEB-2021-KNOWN
2021-04-12 23:27:23Techno29260VA-Miami_Underground_Techno_2021-(LUA052)-WEB-2021-KNOWN
2021-04-12 23:24:36Techno29259VA-Techno_Spring_Essentials_2021-(AMU052)-WEB-2021-KNOWN
2021-04-12 22:06:15Techno12122Farazdeck-Vajrayana-(CIR113)-WEB-2021-AGITB
2021-04-12 20:57:08Techno753The_Second_Wave-Cold_Heart-10189999-WEB-2021-TraX
2021-04-12 20:53:09Techno15154Bebhionn-Elektroplanet-(DRSS151)-WEB-2021-AGITB
2021-04-12 20:46:32Techno751David_Sellers-Betrayed_EP-SUB063-WEB-2021-TraX
2021-04-12 19:17:37Techno511Kristy_Plam-Crystal_Inoculation-SINGLE-WEB-2021-KNOWN
2021-04-12 19:14:38Techno623Rebecca_Goldberg-The_Moon_Is_High_And_So_Am_I-WEB-2021-KNOWN
2021-04-12 19:08:10Techno1054Modern_Minimal_Sound_Research-24-Collection_One-WEB-2021-KNOWN
2021-04-12 15:26:57Hardstyle59Pherato_-_FTRSM-(DWX964)-SINGLE-WEB-2021-SRG
2021-04-12 15:26:44Hardstyle56Krowdexx_-_Genocide-(GBD316)-SINGLE-WEB-2021-SRG
2021-04-12 06:40:54Techno24295VA_-_Beatport_March_Peak_Hour_Tracks_Minimal_Deep_Tech-WEB-2021
2021-04-12 06:40:31Techno15167VA_-_Beatport_Kris_Nebroso_March_Chart-WEB-2021
2021-04-12 06:40:12Techno15196VA_-_Beatport_Chart_by_HD_(BE)_-_Adopted_by_Bonzai-WEB-2021
2021-04-12 06:39:38Techno18189VA_-_Traxsource_Chart_by_James_Curd_-_Blessings_And_Test-WEB-2021
2021-04-12 03:00:55Techno526Alan_Fitzpatrick_and_Joel_Mull_feat._Frangie-We_Dont_Know_Anything_Yet-(DC241)-WEB-2021-PTC
2021-04-12 02:30:16Techno15191VA-Abilities_11-(PHOBIQ0255D)-WEB-2021-PTC
2021-04-11 23:44:07TechnoRebuke_-_Rebukes_Rave_Radio_030-SAT-04-11-2021-TALiON
2021-04-11 23:43:04TechnoDave_Clarke_-_White_Noise_797-SAT-04-11-2021-TALiON
2021-04-11 23:42:06TechnoDr_Phunk_-_Live_at_We_Own_The_Night-CABLE-04-10-2021-TALiON
2021-04-11 23:41:54Techno854Dustmite--Interlacing-(SPRVD002)-WEB-2021-BABAS
2021-04-11 23:41:17Techno862Ijon_Muca--Running_Blind-(STWA003)-WEB-2021-BABAS
2021-04-11 22:14:54TechnoAndro_V_And_Bultech-Dynamic-(PMR046)-WEB-2020-wAx
2021-04-11 19:12:46TechnoYves_Deruyter-Calling_Earth_(Umek_Remix)-(BV2020015)-VINYL-FLAC-2020-STAX
2021-04-11 18:36:42Techno511My_Nu_Leng_x_Bushbaby--Crystal_Clear-SiNGLE-WEB-2021-OMA
2021-04-11 18:34:57Techno733Giant_Swan--Do_Not_Be_Afraid_Of_Tenderness_EP-(KECK002)-WEB-2021-OMA
2021-04-11 18:28:54Techno749Anunaku--042_EP-(WHYT042)-WEB-2021-OMA
2021-04-11 16:10:34Techno969VA-Those_Who_Dare_EP_Vol_3-(R3V006)-WEB-2021-AOV_INT
2021-04-11 16:10:10Techno966VA-OCSDGTL003-(OCSDGTL003)-WEB-2021-AOV_INT
2021-04-11 16:08:59Techno857VA-Four_On_Jam_05-(JAM025)-WEB-2021-AOV_INT
2021-04-11 16:08:39Techno734Diego_Infanzon-Stand_Up_EP-(TR390)-WEB-2021-AFO
2021-04-11 16:08:36Techno855Rog_De_Prisco-Cure_EP-(PRRUKD21097)-WEB-2021-AOV_INT
2021-04-11 16:08:05Techno743Cari_Lekebusch-Minimalism-(HPX113)-WEB-2021-AOV_INT
2021-04-11 16:07:56Techno860LON-Fragile_Movement-(FAUT035)-WEB-2021-AOV_INT
2021-04-11 16:07:16Techno862Aahan-Well_Rave_Again-(OMEN017)-WEB-2021-AOV_INT
2021-04-11 15:16:35Hardstyle837K1_-_Psycho__Ritmo-(NEXT104PRO)-WEB-2021-SRG_iNT
2021-04-11 15:16:22Hardstyle613AtaryNoice_-_Moon_N_Back-(CM016)-WEB-2021-SRG_iNT
2021-04-11 15:03:18Techno733Sian-We_Could_Be-(OCT202)-WEB-2021-AFO
2021-04-11 14:25:46Techno415T78_and_Space_92-Ground_Zero-(ATK084)-SINGLE-WEB-2021-wAx
2021-04-11 14:10:25Techno847Lukas_Firtzer-Clausura_EP-(SUARA422)-WEB-2021-AFO_INT
2021-04-11 09:38:58Techno516Space_Interface--New_Home_New_Dub-(LG146)-SINGLE-WEB-2021-BABAS
2021-04-11 08:23:45TechnoVA-Techno_Skulls_Vol_15-(SAB135)-WEB-2020-BABAS
2021-04-11 08:22:58TechnoVA-Skeletor_3-(SAB137)-WEB-2020-BABAS
2021-04-11 08:20:38Techno59V-Cause_I_Am_An_Issue-SINGLE-WEB-2021-x0x0s
2021-04-11 07:29:06TechnoJochem_Hamerling_-_Panorama_071-CABLE-04-11-2021-TALiON
2021-04-11 07:27:07TechnoSecret_Cinema_-_Gem_FM_200-CABLE-04-11-2021-TALiON
2021-04-11 07:23:06TechnoJoris_Voorn_-_Spectrum_Radio_207-SAT-04-10-2021-TALiON